CST,Max TemperatureF,Mean TemperatureF,Min TemperatureF,Max Dew PointF,MeanDew PointF,Min DewpointF,Max Humidity, Mean Humidity, Min Humidity, Max Sea Level PressureIn, Mean Sea Level PressureIn, Min Sea Level PressureIn, Max VisibilityMiles, Mean VisibilityMiles, Min VisibilityMiles, Max Wind SpeedMPH, Mean Wind SpeedMPH, Max Gust SpeedMPH,PrecipitationIn, CloudCover, Events, WindDirDegrees
2012-11-1,71,53,35,45,38,31,86,64,30,30.05,29.99,29.92,10,10,10,13,4,17,0.00,0,,210
2012-11-2,72,57,41,49,44,38,82,61,35,29.99,29.92,29.86,10,10,10,20,9,24,0.00,0,,138
2012-11-3,58,48,38,49,40,35,86,67,46,30.19,30.05,29.87,10,10,10,18,9,22,0.00,0,,313
2012-11-4,61,48,34,39,36,32,92,67,31,30.24,30.17,30.07,10,9,4,13,3,17,0.00,0,,149
2012-11-5,54,48,42,46,43,37,100,88,59,30.07,30.01,29.97,10,6,1,17,10,21,0.06,8,Rain,301
2012-11-6,56,47,38,43,39,30,100,78,53,30.09,30.05,29.99,10,8,2,21,8,28,0.00,5,,290
2012-11-7,54,44,34,35,32,28,82,64,40,30.15,30.11,30.04,10,10,10,20,8,25,0.00,0,,329
2012-11-8,64,50,36,39,36,32,79,58,34,30.16,30.07,29.98,10,10,10,25,15,32,0.00,0,,152
2012-11-9,75,63,50,58,50,39,81,67,51,29.98,29.93,29.86,10,10,10,25,18,31,0.00,0,,169
2012-11-10,75,66,56,54,50,46,78,60,35,29.96,29.89,29.81,10,10,10,29,20,38,0.00,0,,165
2012-11-11,68,50,32,57,45,28,100,90,65,30.24,29.94,29.76,10,6,0,28,13,36,0.67,7,Fog-Rain-Thunderstorm,294
2012-11-12,46,36,25,27,23,20,89,65,31,30.48,30.41,30.26,10,10,10,18,7,26,0.00,0,,267
2012-11-13,54,40,25,33,26,21,85,59,24,30.52,30.45,30.38,10,10,10,9,4,13,0.00,0,,159
2012-11-14,55,44,32,29,27,24,75,56,24,30.45,30.38,30.31,10,10,10,10,5,14,0.00,0,,157
2012-11-15,59,46,32,34,29,24,76,58,29,30.38,30.34,30.31,10,10,10,10,4,13,0.00,0,,147
2012-11-16,61,46,30,35,31,27,85,62,25,30.45,30.41,30.38,10,10,8,7,1,,0.00,0,,138
2012-11-17,61,49,36,30,28,27,76,51,21,30.46,30.38,30.33,10,10,10,16,9,21,0.00,0,,149
2012-11-18,64,52,39,34,30,27,63,45,19,30.35,30.28,30.22,10,10,10,17,11,23,0.00,1,,153
2012-11-19,57,51,44,48,44,35,97,81,50,30.23,30.18,30.12,10,9,5,17,11,22,0.22,5,Rain,163
2012-11-20,65,52,38,46,42,37,97,77,45,30.23,30.18,30.13,10,9,4,14,5,29,0.00,0,,279
2012-11-21,67,50,33,47,37,32,100,82,33,30.29,30.22,30.10,10,7,0,14,8,22,0.00,0,Fog,162
2012-11-22,65,56,47,52,43,38,87,61,39,30.19,30.04,29.94,10,10,10,24,14,29,0.05,3,Rain,173
2012-11-23,53,40,26,35,25,18,77,60,35,30.43,30.37,30.21,10,10,10,26,10,35,0.00,1,,314
2012-11-24,47,34,21,22,18,13,78,51,20,30.41,30.24,30.02,10,10,10,17,7,22,0.00,0,,192
2012-11-25,63,49,35,35,29,22,65,49,24,29.99,29.94,29.88,10,10,10,15,7,18,0.00,0,,177
2012-11-26,43,36,29,33,29,25,85,69,48,30.40,30.15,29.96,10,10,4,25,11,31,0.03,5,Rain,34
2012-11-27,43,32,20,24,21,18,92,69,37,30.48,30.39,30.32,10,10,7,13,4,15,0.00,0,,79
2012-11-28,53,38,23,31,26,19,85,62,33,30.45,30.36,30.24,10,10,9,14,6,22,0.00,0,,165
2012-11-29,64,51,37,35,32,29,79,53,27,30.23,30.14,30.07,10,10,10,24,14,33,0.00,0,,166
2012-11-30,67,54,41,52,43,31,83,67,50,30.13,30.08,30.04,10,10,10,14,9,18,0.00,1,,171